Regional Weather Roundup
Issued by NWS

Home | Current Version | Previous Version | Graphics & Text | Print | Product List | Glossary Off
Versions: 1 2 3 4 5 6 7 8 9 10 11 12 13 14 15 16 17 18 19 20 21 22 23 24 25 26 27 28 29 30 31 32 33 34 35 36 37 38 39 40 41 42 43 44 45 46 47 48 49 50

000
ASUS43 KTOP 292308
RWRKS

WEATHER ROUNDUP FOR KANSAS
NATIONAL WEATHER SERVICE GOODLAND KS
600 PM CDT WED JUL 29 2015

NOTE:  "FAIR" INDICATES FEW OR NO CLOUDS BELOW 12,000 FEET WITH NO
SIGNIFICANT WEATHER AND/OR OBSTRUCTIONS TO VISIBILITY.

KSZ001>006-013>018-027>032-041>047-300000-
NORTHWEST KANSAS

CITY           SKY/WX    TMP DP  RH WIND       PRES   REMARKS
GOODLAND       SUNNY     80  44  27 SE12G20   30.25F
HAYS           PTSUNNY   81  54  39 E14       30.19F
HILL CITY      SUNNY     84  52  33 E10       30.21F
RUSSELL        MOSUNNY   81  53  37 E14       30.18S
$$

KSZ061>065-074>080-084>089-300000-
SOUTHWEST KANSAS

CITY           SKY/WX    TMP DP  RH WIND       PRES   REMARKS
DODGE CITY     MOSUNNY   80  64  58 NE15G21   30.18F
ELKHART          N/A     82  64  54 E8          N/A
GARDEN CITY    MOSUNNY   79  64  60 E12       30.20F
GREAT BEND     PTSUNNY   82  64  54 NE12      30.17F
LIBERAL        CLOUDY    82  64  54 NE14      30.17S
PRATT          PTSUNNY   79  64  61 NE5       30.17F
$$

KSZ066>073-081>083-090>101-300000-
SOUTHEAST KANSAS

CITY           SKY/WX    TMP DP  RH WIND       PRES   REMARKS
CHANUTE        MOSUNNY   86  70  58 NE8       30.09S
COFFEYVILLE    PTSUNNY   89  74  60 E12       30.04R HX  98
HUTCHINSON     CLOUDY    78  70  76 NE7       30.14F
MEDICINE LODGE   N/A     77  71  82 N12       30.12F
PARSONS        MOSUNNY   90  74  59 NE8       30.06F HX  99
WICHITA INTL   LGT RAIN  77  71  82 NE12      30.12F
WICHITA JABRA  CLOUDY    78  71  79 N8        30.13F
WICHITA MCCONL CLOUDY    76  71  84 N10       30.12F
WINFIELD       TSTM      72  71  97 N17       30.16R
$$

KSZ007>012-019>026-033>040-048>060-102>105-300000-
NORTHEAST KANSAS

CITY           SKY/WX    TMP DP  RH WIND       PRES   REMARKS
CONCORDIA      SUNNY     81  61  50 E6        30.18F
EMPORIA        PTSUNNY   83  70  64 NE12      30.14R
LAWRENCE       PTSUNNY   83  67  58 N8        30.14R
MANHATTAN      MOSUNNY   84  70  62 NE12      30.16S
MARYSVILLE     MOSUNNY   82  63  51 NE3       30.17F
OLATHE IND     MOSUNNY   83  67  58 NE6       30.14S
OLATHE EXE     MOSUNNY   82  62  50 NE7       30.13S
SALINA         MOSUNNY   83  69  62 NE7       30.17S
TOPEKA BILLARD PTSUNNY   84  68  58 N7        30.15R
TOPEKA FORBES  CLOUDY    85  65  51 NE8       30.15S
$$



USA.gov is the U.S. government's official web portal to all federal, state and local government web resources and services.